Location: Iesi
(43.5167°N, 13.2333°E)
Time: 00:12:43
(UTC+00:00)

Spot 2 Rocket - Pass Details

Date: 08 August 2020
Orbit: 756 x 773 km, 98.6° (Epoch: 19 September)

Event Time Altitude Azimuth Distance (km) Brightness Sun altitude
Exits shadow 20:11:24 27° 161° (SSE) 1,437 4.4 -17.6°
Maximum altitude 20:14:13 85° 76° (ENE) 781 3.4 -18.0°
Drops below altitude 10° 20:19:21 10° 348° (NNW) 2,322 6.8 -18.7°
Sets 20:21:40 0° 347° (NNW) 3,251 7.8 -18.9°
